Theta_e
279 278 277 278 278 278 278 278 278 277 277 277 276 275 276 276 276 276 275 275 274 274 274 273 274 273 273 274 273 273 273 273 273 274 274 275 276 278 279 279 279 280 283 286 288 289 289 289 289 290 290 291 291 292 293 295 298 299 299 302 304 308
277 277 276 276 277 277 277 277 277 276 276 276 275 276 275 275 275 275 274 274 274 273 273 273 273 273 273 273 272 272 272 272 273 273 274 274 276 277 279 278 278 279 281 284 288 289 289 288 289 289 289 290 290 291 292 294 296 297 299 300 303 307
277 276 276 277 276 276 277 276 276 276 276 275 275 274 274 274 274 274 274 274 273 273 272 272 272 272 272 272 272 271 271 272 273 273 274 274 275 277 277 277 277 278 280 282 285 287 288 288 288 288 289 289 289 290 291 293 294 295 297 300 301 305
276 275 276 276 276 276 275 276 275 275 274 274 274 274 273 273 273 273 273 273 273 272 272 272 272 272 272 271 271 271 271 271 272 273 273 273 274 275 276 276 277 278 279 279 281 284 287 289 289 288 288 288 288 289 291 291 292 293 295 299 301 304
275 276 276 276 276 275 275 275 275 274 274 274 274 273 273 273 273 273 273 272 272 272 272 272 271 271 271 270 270 270 270 271 271 272 272 273 274 275 275 276 277 277 278 278 280 282 286 288 288 287 287 287 288 288 288 290 291 292 293 296 299 303
275 276 276 276 275 275 274 274 274 274 273 273 273 272 272 272 272 272 272 272 272 272 272 271 271 271 270 270 270 270 270 270 271 272 272 273 274 274 275 276 276 277 277 278 279 281 285 288 288 288 287 287 287 287 288 288 289 290 292 294 297 302
275 275 275 275 275 274 274 274 273 273 273 273 272 272 272 272 272 272 271 271 271 271 271 271 271 271 270 270 270 269 270 270 270 271 271 272 272 273 273 274 276 276 277 277 278 279 282 287 288 288 287 287 287 287 287 288 288 289 290 292 295 299
275 275 275 274 274 274 273 273 273 272 272 272 272 272 272 271 271 271 270 271 270 270 270 270 270 271 270 270 269 269 269 270 270 270 271 271 271 272 273 274 275 276 276 277 277 277 278 281 286 288 287 287 287 287 287 287 288 288 290 291 294 298
274 274 274 274 273 273 273 272 272 272 271 271 271 271 271 271 270 270 270 270 270 270 270 270 270 270 269 270 269 270 269 269 269 269 270 271 272 272 273 273 274 275 275 276 276 276 277 278 281 285 287 287 287 287 287 287 287 288 289 291 293 297
274 274 273 273 273 272 272 272 271 271 271 270 270 271 270 270 270 269 269 269 269 269 269 269 270 270 270 270 270 269 269 269 269 269 270 270 270 270 270 271 272 273 274 275 275 276 277 278 279 282 285 286 286 286 286 287 287 287 288 290 293 295
273 273 273 272 272 271 271 271 270 270 270 270 270 270 270 270 269 268 268 268 268 268 269 269 270 270 269 269 268 268 268 268 269 269 269 269 269 270 271 271 272 272 273 274 275 276 277 278 279 281 284 286 286 286 287 287 287 287 287 288 290 293
273 272 272 272 271 270 270 270 269 269 269 269 269 269 269 269 268 267 267 266 267 269 269 269 269 269 269 268 268 268 268 268 268 268 268 268 269 269 270 271 271 272 273 274 275 276 277 277 279 281 283 285 285 286 287 287 287 287 287 287 288 291
272 272 271 271 270 270 269 269 269 269 268 268 268 268 268 268 266 266 266 266 267 268 268 268 268 268 268 267 267 267 266 267 267 267 267 267 268 268 269 270 271 272 273 274 274 275 276 277 278 281 283 285 287 287 287 287 287 287 287 287 288 290
271 271 270 270 270 269 269 268 268 268 267 267 267 267 267 266 265 265 265 266 267 267 268 268 267 267 267 266 266 266 266 266 266 266 266 267 267 268 269 269 269 270 271 272 273 275 276 277 279 282 283 284 286 288 287 288 288 287 287 287 288 289
271 270 270 270 269 269 269 268 267 267 267 266 267 266 265 265 265 265 265 266 266 266 267 267 267 266 265 265 265 265 265 265 266 266 266 266 267 268 267 268 269 270 272 273 274 275 276 277 280 283 284 285 286 287 288 288 288 287 287 287 287 289
270 270 270 269 269 269 269 268 267 267 267 266 266 265 264 264 264 264 265 265 266 266 266 266 265 265 265 265 264 264 264 264 264 265 266 266 266 266 267 268 268 270 271 272 274 275 277 278 281 283 284 285 286 288 288 288 288 288 287 287 287 289
270 269 269 268 268 268 268 267 267 266 265 265 264 264 263 263 263 263 264 264 265 265 265 264 264 264 264 264 264 264 263 264 264 265 265 266 266 266 266 267 268 269 270 271 274 276 276 277 281 282 283 284 286 288 289 289 289 288 288 288 288 289
269 268 268 268 268 267 267 266 266 264 263 264 263 263 262 262 262 263 264 264 263 263 263 263 262 262 262 262 263 263 263 263 264 264 265 266 266 267 268 268 270 270 270 271 272 273 275 277 281 282 283 284 286 289 288 288 287 287 287 287 288 289
268 268 268 267 267 266 265 265 264 263 262 262 262 262 262 262 262 262 262 262 262 262 262 262 261 261 261 261 262 262 262 263 264 264 265 265 266 266 267 268 269 271 272 273 274 275 276 276 279 282 283 284 286 287 287 287 286 286 287 287 288 289
268 268 267 266 265 265 265 264 263 262 261 261 261 261 261 261 261 262 262 261 261 261 261 261 261 260 260 261 261 262 263 264 264 265 266 265 265 266 267 268 268 270 271 271 272 276 277 278 281 283 284 285 286 286 285 286 286 286 286 287 288 290
267 266 266 264 263 264 263 262 262 261 260 260 260 260 260 260 260 260 260 260 260 260 260 260 260 260 260 260 261 263 264 264 264 265 266 266 266 267 268 268 268 269 271 272 273 276 278 279 280 283 284 285 287 286 286 286 286 286 286 287 287 289
265 264 264 263 263 263 262 261 261 259 259 259 259 259 259 259 260 260 260 260 260 260 260 260 260 260 260 261 262 264 265 265 265 266 266 267 267 267 268 269 269 269 270 273 275 277 279 279 280 282 284 285 287 288 287 286 286 286 286 287 287 289
264 263 263 263 263 262 261 260 259 258 258 259 258 258 259 259 259 259 259 259 259 258 259 260 261 261 262 264 265 265 265 266 267 267 267 267 268 268 268 268 269 270 271 273 275 277 279 280 281 283 285 286 287 288 288 287 286 287 287 287 287 290
263 263 262 262 262 261 260 259 258 258 258 257 257 258 259 259 259 258 258 258 258 258 259 260 261 262 263 265 265 265 265 266 267 268 269 269 268 268 268 269 270 270 271 273 276 279 280 281 282 282 285 287 288 289 290 288 287 287 287 287 288 291
262 262 262 262 261 260 260 258 257 257 257 256 257 258 258 258 258 257 257 257 257 258 259 260 261 263 264 265 265 264 264 265 266 267 269 270 269 269 269 270 270 271 272 275 278 280 282 283 284 286 285 287 288 289 290 290 289 289 288 287 288 290
261 261 261 261 260 259 259 257 256 256 256 256 258 258 257 257 256 256 256 256 257 258 260 261 262 263 264 264 264 264 264 264 265 266 268 270 271 271 271 271 272 273 274 276 279 280 282 283 283 285 286 286 287 288 289 289 290 290 288 288 289 292
259 259 259 259 259 258 258 257 256 255 255 257 257 257 256 255 255 255 255 256 257 258 260 261 262 263 263 263 263 263 263 263 264 265 267 269 272 273 273 273 275 276 278 280 280 281 282 283 284 284 285 286 287 288 289 289 289 290 290 288 290 292
257 257 257 257 258 258 258 257 256 254 255 257 256 256 255 254 254 254 255 256 257 259 260 261 262 262 262 263 263 263 263 263 263 264 266 268 270 271 272 274 277 277 279 280 280 281 282 283 284 285 285 286 286 287 288 289 289 289 290 290 290 292
256 256 255 255 257 257 257 256 256 256 256 255 256 255 254 253 253 254 255 256 257 259 260 261 261 261 261 262 262 262 262 263 263 264 265 267 267 268 269 272 275 279 281 281 282 283 283 284 284 285 286 287 287 288 288 288 288 289 289 289 290 292
255 255 255 255 256 257 256 256 255 255 255 255 255 254 253 253 253 253 254 256 258 259 260 260 261 261 260 261 261 261 261 261 262 263 264 265 266 266 268 270 273 275 277 280 283 284 284 285 285 286 286 287 288 288 289 288 288 289 290 290 291 292
254 254 254 255 256 256 255 255 255 255 255 255 254 253 252 252 253 253 254 256 257 258 260 260 260 260 260 260 260 261 261 261 262 262 264 266 267 268 268 269 271 274 275 277 278 279 281 284 285 286 288 288 289 288 288 288 289 290 291 291 293 291
254 253 254 255 255 255 254 254 254 254 255 254 253 253 252 252 252 253 254 256 257 258 259 259 259 259 259 259 259 259 259 263 267 265 264 264 269 272 273 273 271 273 274 274 276 278 279 281 284 288 288 288 289 290 290 290 291 292 292 292 293 292
254 253 253 254 255 254 253 253 253 253 254 254 253 253 252 252 252 253 254 255 256 258 259 259 259 259 259 259 258 258 258 258 260 265 268 269 269 270 272 272 274 276 276 274 273 276 280 282 284 287 288 288 289 290 291 291 291 292 293 293 291 291
253 253 253 254 254 253 253 252 253 253 253 253 252 252 251 251 252 252 253 255 257 258 259 259 258 258 258 258 258 258 257 257 257 258 264 267 268 269 270 271 272 274 274 275 274 275 276 279 281 284 285 287 289 290 290 291 292 293 293 293 293 291
253 253 253 253 252 252 252 251 252 252 252 252 252 251 251 251 252 252 253 255 257 258 258 258 257 257 257 257 257 257 257 256 256 255 256 258 265 267 268 269 270 271 273 273 273 275 277 278 279 281 282 283 286 289 290 291 292 293 293 293 291 291
252 252 252 251 251 251 251 251 251 252 251 251 251 251 250 251 252 252 253 255 257 257 257 257 257 257 257 257 257 256 256 256 256 256 256 255 256 257 261 265 267 269 271 271 271 272 274 276 277 278 279 280 281 285 289 291 290 293 293 292 291 291
251 251 252 252 251 250 250 250 251 251 251 251 250 250 250 251 252 252 254 256 257 256 256 256 257 257 257 257 256 256 256 256 256 256 256 255 255 255 255 255 257 263 269 266 266 270 272 273 275 276 276 277 278 280 286 292 290 290 290 291 291 291
251 251 251 251 250 249 249 250 251 251 250 250 250 250 250 251 251 252 253 254 256 256 255 255 256 256 256 256 256 256 256 256 256 255 255 255 255 255 255 255 256 257 264 268 267 268 268 270 272 273 274 274 274 275 274 270 275 284 287 287 288 290
Wind_Speed
5 3 3 4 5 7 8 9 10 12 12 11 12 15 14 14 15 15 14 14 13 13 16 17 17 17 16 17 17 16 16 16 14 14 14 16 16 15 12 13 13 13 15 15 15 13 11 9 7 6 6 6 6 5 6 7 9 10 10 11 13 16
4 2 4 6 7 7 7 8 10 13 12 12 13 14 13 15 15 15 16 15 14 16 16 16 16 16 16 17 14 15 14 17 16 15 17 14 15 14 13 12 12 14 14 15 14 13 11 9 8 6 6 6 6 5 5 6 8 11 11 11 11 13
2 3 4 5 6 5 6 8 10 11 11 13 13 14 16 16 16 16 15 15 15 16 17 17 16 18 16 15 16 15 17 17 16 15 13 14 14 13 16 13 15 13 14 15 15 14 13 12 10 6 6 6 6 5 4 5 8 11 11 10 12 14
2 4 4 4 5 7 9 10 10 11 13 13 13 13 13 14 16 16 17 15 15 15 17 17 15 16 14 17 16 15 16 13 16 13 14 15 12 13 14 16 13 12 13 12 14 14 15 13 12 8 5 6 6 6 3 5 7 10 12 11 12 13
3 4 6 7 8 9 10 10 10 11 13 14 13 14 16 15 15 15 15 15 15 16 17 16 17 16 17 17 13 17 14 16 14 14 14 13 14 13 14 14 14 14 12 13 12 14 15 14 11 9 6 6 6 6 5 4 6 9 11 12 12 13
4 5 8 9 9 10 11 10 11 12 12 13 14 15 16 16 15 16 16 16 16 16 16 15 16 15 15 14 15 14 15 15 12 14 13 16 11 13 13 12 14 13 14 14 12 13 14 13 10 10 7 7 6 6 6 6 7 8 11 12 13 13
5 6 7 8 9 10 11 12 12 12 14 13 14 15 15 15 15 16 18 16 19 18 17 18 17 18 17 16 13 16 17 13 14 11 15 14 15 14 15 13 13 13 13 12 13 14 14 13 11 11 9 7 6 6 6 7 8 9 11 12 13 14
5 7 8 8 9 10 11 13 13 13 13 14 12 14 16 16 15 16 17 18 18 20 21 18 21 23 23 19 17 15 13 14 12 13 13 13 16 16 14 14 12 9 12 12 13 13 15 16 14 12 12 10 7 6 6 7 8 9 10 12 12 14
8 8 8 8 9 9 10 12 14 14 15 16 15 13 14 15 15 17 17 18 19 20 19 21 23 23 22 24 18 20 18 17 18 17 18 15 16 16 15 14 14 16 13 15 13 13 13 15 16 14 12 10 8 7 6 7 8 9 10 11 12 13
8 9 9 9 10 11 11 11 12 13 14 16 16 15 14 14 16 18 18 19 20 20 19 20 20 19 18 16 22 18 19 20 18 18 17 17 18 18 18 18 16 14 15 14 13 12 12 14 13 15 14 11 7 7 7 7 8 9 10 12 12 12
9 10 10 10 11 12 13 13 14 14 14 15 15 14 15 15 16 18 19 19 20 20 18 19 21 21 22 23 19 22 21 19 19 18 18 18 18 16 17 17 17 15 16 12 14 13 12 12 15 13 12 8 8 7 8 8 9 9 9 11 13 12
7 8 10 11 12 13 14 14 14 15 16 16 16 16 15 15 17 19 19 18 17 17 19 22 19 16 16 19 19 17 20 20 20 20 19 18 18 18 17 18 18 18 18 18 15 12 11 11 11 15 25 22 13 10 9 9 9 8 8 10 12 12
7 8 9 10 11 12 13 13 14 15 16 15 16 16 15 15 18 17 18 19 20 23 22 19 23 23 24 21 19 23 21 17 16 17 18 18 18 19 18 17 18 17 16 16 14 14 12 11 11 22 24 25 27 17 12 10 10 9 8 9 10 12
8 9 10 10 11 12 12 14 15 15 16 16 16 17 16 16 16 17 18 18 19 20 22 25 21 18 16 20 20 17 18 18 17 17 18 18 19 17 16 17 18 18 18 16 15 15 13 12 18 25 26 26 28 23 13 10 10 10 9 9 10 11
6 7 9 10 11 12 13 13 15 15 16 17 17 16 17 17 16 17 18 19 21 24 22 16 20 22 24 24 20 18 17 16 17 17 17 17 16 16 17 17 17 17 16 17 18 16 14 13 20 25 26 25 26 27 21 11 10 10 9 9 10 11
6 6 7 9 11 11 12 11 12 14 14 15 16 16 16 17 18 17 18 19 19 18 19 22 19 18 18 20 24 24 19 18 18 17 16 16 16 16 17 16 17 17 17 17 17 15 13 12 16 23 25 25 26 27 23 12 12 11 10 10 11 11
7 8 10 10 11 11 12 13 12 13 14 14 16 15 16 16 17 18 17 18 20 21 20 19 20 22 23 20 17 18 20 20 20 19 16 14 15 15 15 15 15 15 15 16 17 15 15 14 22 24 26 26 27 27 22 12 11 10 10 11 11 12
7 8 9 8 10 11 11 12 13 14 16 14 14 15 15 16 17 18 17 18 21 20 20 21 22 22 23 23 22 20 20 18 18 18 16 15 15 13 14 14 13 14 14 15 16 17 15 13 22 24 25 26 26 27 14 11 11 11 10 11 12 12
4 5 7 9 10 11 12 11 12 14 15 15 15 15 15 15 17 18 20 19 19 20 20 20 21 22 22 21 22 21 20 19 20 16 12 14 14 14 14 14 14 13 13 15 15 16 15 13 19 24 25 25 26 21 11 10 9 10 11 11 12 12
3 5 7 9 10 10 10 11 13 14 14 15 15 16 17 16 17 19 18 19 21 21 21 21 21 23 22 21 20 20 18 17 15 16 13 12 13 13 14 12 13 13 13 16 17 17 15 14 15 22 23 25 26 21 13 10 10 11 11 11 11 11
5 6 8 8 11 11 10 12 12 13 14 14 15 15 16 17 18 19 19 21 21 21 21 20 21 22 21 20 20 19 19 18 16 16 13 12 12 13 12 12 12 13 12 13 16 22 20 13 15 23 25 26 25 20 12 12 10 11 11 9 11 11
5 7 9 10 10 10 11 10 11 11 13 14 14 14 15 16 18 19 19 20 21 20 20 21 21 18 17 18 18 17 18 18 16 13 12 12 10 11 11 11 12 14 14 13 15 15 15 14 14 17 25 26 26 27 14 10 11 12 11 10 10 11
3 5 8 9 10 11 10 9 11 12 12 13 13 15 16 18 18 18 19 19 20 20 20 16 15 19 20 18 17 16 16 12 14 14 12 11 10 10 10 12 12 13 14 13 13 14 14 12 13 16 24 25 26 27 22 11 12 11 10 9 10 11
3 5 7 8 10 10 9 9 11 12 13 13 15 16 16 16 18 18 18 20 19 20 21 22 20 20 18 18 19 21 19 18 16 15 15 10 9 11 12 12 12 12 12 13 13 13 13 14 20 16 21 25 25 26 26 14 11 11 9 11 11 12
4 6 8 8 9 7 8 8 10 11 11 13 15 15 16 16 17 18 19 18 18 20 22 21 22 21 17 18 20 21 20 17 16 16 15 13 10 10 11 12 11 11 12 12 11 11 11 11 11 17 13 16 20 23 24 24 16 18 13 12 13 13
3 5 7 7 6 7 7 8 10 11 13 14 13 15 15 15 16 17 18 17 18 20 20 22 22 18 17 19 19 20 18 18 18 18 15 15 9 8 9 9 9 10 11 10 9 9 9 9 9 12 17 15 20 21 23 24 26 24 16 14 13 12
3 5 7 7 5 6 6 7 10 12 14 13 14 16 17 17 18 17 18 19 19 19 18 20 20 19 18 18 18 19 17 19 18 17 16 15 13 8 8 9 9 10 10 9 9 8 9 9 10 10 14 19 20 23 24 26 28 27 26 18 14 11
2 4 6 8 6 6 5 7 8 12 14 13 13 15 16 17 18 18 19 18 18 19 19 21 21 19 18 19 17 16 14 16 17 15 16 15 14 15 15 15 12 10 9 9 10 10 10 9 9 10 11 12 15 17 22 25 26 26 25 24 16 17
4 5 6 8 6 6 6 7 7 8 11 12 13 13 15 16 17 17 16 18 18 17 18 19 17 19 17 16 16 15 13 15 14 15 15 14 15 15 15 16 17 14 8 8 9 9 10 10 9 9 9 9 9 9 11 14 16 22 22 17 15 15
3 4 6 7 7 7 7 8 8 9 10 10 12 13 14 15 15 16 16 18 16 15 16 17 22 21 17 17 14 16 17 15 16 16 15 15 16 16 16 16 16 15 14 12 9 8 9 9 8 7 8 8 8 8 9 9 10 10 11 12 13 12
3 4 5 7 6 7 8 8 8 9 10 11 12 13 14 14 15 15 15 15 14 15 15 15 16 16 17 18 17 13 11 14 16 16 16 15 13 14 14 15 15 15 14 11 10 12 11 9 9 8 6 7 10 10 8 8 9 10 11 14 16 12
2 4 5 6 6 7 7 8 8 9 9 11 11 12 13 15 14 14 14 13 14 14 16 16 16 16 16 16 18 18 16 17 21 18 15 15 25 30 29 24 16 16 13 12 11 11 11 12 11 15 18 19 19 19 18 15 14 15 12 14 20 14
2 3 4 5 5 6 7 8 8 9 10 11 12 12 12 13 12 11 12 13 13 15 15 14 16 16 14 15 17 17 19 19 20 24 26 27 28 28 32 30 31 30 28 20 14 16 22 23 24 20 16 18 18 18 16 16 17 17 18 20 16 13
2 3 4 5 5 6 7 8 8 8 10 10 11 11 11 11 11 11 12 12 13 15 15 13 14 15 15 15 15 17 16 17 18 20 28 33 29 30 32 32 34 33 32 33 27 21 14 21 24 25 20 13 13 14 14 14 15 16 19 21 22 13
2 3 3 4 4 6 6 7 8 8 9 10 11 11 11 11 11 11 12 12 13 13 14 14 13 14 15 15 17 16 16 15 18 20 21 27 32 31 31 34 37 36 34 35 34 33 26 25 25 27 25 23 21 12 11 10 13 16 20 22 15 12
1 2 3 3 4 5 6 7 7 8 9 9 10 10 10 10 11 10 10 11 13 13 12 13 13 15 14 14 14 13 14 13 15 15 17 18 19 25 31 37 38 37 34 37 36 34 32 32 30 29 29 28 26 22 9 8 8 15 20 18 13 13
1 2 3 4 5 5 6 6 7 8 8 9 9 10 10 10 10 9 11 16 14 10 11 11 12 13 13 13 14 14 14 14 14 14 15 16 16 16 16 15 21 28 32 30 27 35 35 33 33 32 32 34 32 29 18 4 7 10 10 10 7 7
0 1 2 3 4 4 5 6 7 8 8 9 9 9 9 10 9 9 9 9 10 10 9 10 10 11 11 14 13 12 13 13 13 15 14 14 14 14 15 15 16 13 18 34 36 42 36 35 33 31 35 35 36 33 31 16 12 9 6 5 2 3
Wind_Direction
299 296 305 307 308 312 310 310 313 313 314 314 313 312 312 314 316 312 310 313 311 310 311 311 312 311 306 307 303 301 299 296 295 295 293 294 292 287 286 293 298 300 300 297 291 278 258 244 230 218 232 242 253 253 267 278 280 276 264 258 254 242
288 291 305 310 313 313 310 310 312 312 312 312 313 310 312 315 313 312 310 311 309 308 307 307 308 305 308 305 302 302 296 298 296 294 294 291 292 287 289 295 297 299 296 295 294 288 277 265 249 221 226 243 247 251 262 274 283 280 272 262 256 248
280 286 293 300 304 301 306 312 312 309 309 310 313 314 316 316 315 313 310 311 309 309 309 308 309 309 304 300 300 298 300 298 296 292 291 290 289 296 296 295 295 295 298 303 305 300 285 269 264 244 229 241 253 251 258 279 282 282 279 269 263 255
272 285 297 303 307 310 314 315 312 313 312 312 313 314 312 314 315 315 313 312 308 307 309 306 306 303 302 303 300 296 299 297 299 297 291 289 289 291 291 292 291 290 294 297 296 296 287 270 258 253 234 244 258 264 255 276 283 286 285 278 264 253
289 305 319 323 320 317 319 317 316 313 314 315 316 315 312 314 311 311 311 308 307 307 306 306 304 304 303 299 297 297 295 297 293 294 290 289 289 286 286 289 288 291 294 294 294 294 287 272 258 255 244 244 253 266 273 267 278 281 282 280 270 254
317 326 331 329 328 325 320 315 315 315 315 316 315 313 314 316 317 316 314 311 307 307 306 306 305 300 300 299 298 291 293 295 294 293 290 289 285 287 289 288 290 290 291 292 291 290 286 275 258 255 244 241 244 258 269 278 276 276 277 276 276 261
330 327 329 326 321 320 318 317 319 319 317 319 318 314 316 317 317 317 316 314 313 313 316 312 311 306 303 304 298 296 296 294 294 293 291 292 291 290 291 288 285 281 285 289 295 298 298 286 265 261 256 242 239 243 259 272 278 279 278 278 278 273
319 328 331 326 323 321 319 319 320 319 316 314 317 316 318 318 317 316 316 316 315 316 312 308 309 313 313 308 305 300 298 296 290 292 288 286 284 282 277 279 285 285 287 288 294 297 298 300 289 265 258 249 239 237 247 263 272 279 283 281 280 278
333 333 328 323 318 321 320 320 320 321 320 319 321 320 316 315 315 315 316 316 317 314 312 311 314 316 313 315 306 310 303 303 302 300 300 298 295 295 297 299 299 296 291 289 290 290 292 290 290 286 267 252 237 238 249 261 272 279 285 283 278 276
329 328 323 321 321 320 321 318 317 320 321 320 321 320 319 317 317 317 316 316 313 311 313 314 304 300 303 306 308 304 305 302 302 299 298 299 296 294 292 290 287 286 286 285 282 281 282 282 280 278 273 257 242 244 247 254 268 278 284 287 280 277
325 322 322 323 324 323 321 322 323 324 320 317 317 317 317 317 316 314 314 313 309 309 309 310 316 312 312 310 311 309 306 306 300 299 298 295 292 288 286 285 284 282 279 273 272 276 275 277 277 276 271 266 261 249 250 258 262 269 281 286 286 283
319 318 323 324 325 323 324 327 327 323 322 320 320 320 319 322 317 317 313 309 307 305 311 310 303 299 298 306 302 305 308 302 300 296 295 293 292 290 288 286 283 279 277 279 275 268 270 271 273 274 274 271 264 256 256 257 260 264 269 276 283 283
318 321 321 321 320 323 327 325 324 320 316 318 319 319 319 320 315 310 309 307 310 315 310 311 313 307 312 315 314 308 303 299 296 297 295 294 292 291 290 287 286 284 282 279 275 271 265 266 269 272 274 274 269 262 254 253 259 258 261 268 274 279
322 322 317 317 322 329 332 327 321 320 319 320 321 319 320 318 315 311 307 304 304 308 314 312 311 307 302 306 301 301 299 295 293 291 292 292 291 289 286 283 280 279 277 274 270 265 261 261 265 268 269 268 268 266 254 248 254 256 258 265 269 274
312 311 315 321 334 332 328 326 320 321 322 321 320 322 319 318 315 311 308 308 310 314 313 308 304 305 307 307 305 304 300 296 294 292 291 289 289 289 286 284 281 278 277 271 268 264 259 255 261 264 265 265 264 264 260 251 248 249 255 259 265 270
306 313 322 330 328 327 320 320 318 315 319 317 316 318 315 316 314 313 309 309 306 303 309 310 312 308 305 306 306 305 300 296 290 288 284 282 281 280 281 279 276 274 272 272 268 267 265 259 263 266 268 268 263 259 255 245 244 245 248 255 260 266
317 326 336 335 329 323 323 321 324 322 320 320 316 315 316 315 313 312 310 308 311 315 315 312 305 300 301 300 296 299 299 297 297 291 285 282 278 277 276 274 272 268 266 271 271 259 249 250 257 262 262 264 262 256 249 237 242 243 246 252 255 260
331 334 327 323 322 324 326 323 328 326 318 317 313 313 315 314 313 312 315 314 315 314 312 308 309 312 309 303 299 296 296 291 286 287 282 277 274 271 270 270 267 262 257 261 265 268 270 267 263 263 261 258 259 256 240 237 238 245 246 250 255 255
338 330 324 324 327 324 326 328 329 323 319 318 318 317 316 317 315 317 319 315 310 306 308 313 310 305 305 304 301 295 292 295 293 286 276 271 271 268 268 268 264 267 267 270 268 260 257 255 257 260 258 255 253 253 244 240 241 245 246 248 254 256
332 336 335 325 321 321 326 332 328 322 318 317 318 320 320 320 319 319 317 313 311 315 315 310 306 302 301 297 296 293 291 288 287 279 272 265 265 267 265 263 264 262 260 261 265 261 252 252 253 257 255 251 249 243 243 240 244 244 244 251 250 254
349 338 332 322 319 327 335 331 326 322 319 319 320 321 319 321 321 322 319 315 315 310 306 305 304 300 297 296 294 295 294 292 285 281 274 265 259 260 261 258 260 261 259 256 258 263 263 258 257 257 256 253 247 242 233 236 235 243 241 242 250 249
360 343 333 324 319 330 332 330 324 318 316 316 319 319 320 322 323 317 313 309 308 309 308 308 303 294 290 285 289 294 296 293 285 276 265 262 253 257 260 260 259 260 261 264 265 259 252 255 254 253 253 251 247 240 231 224 231 235 237 235 243 248
16 332 319 317 323 332 332 330 324 320 320 319 319 322 322 321 317 315 314 312 309 306 305 307 303 303 306 305 304 304 299 298 301 290 270 262 261 251 255 258 259 260 262 261 257 259 260 256 254 254 251 249 245 238 230 225 227 232 232 238 236 238
352 327 321 322 326 330 329 327 322 319 321 323 321 322 322 320 320 318 315 311 309 309 310 313 313 311 311 312 318 322 313 304 302 303 294 269 255 252 253 255 256 260 262 261 257 255 254 250 249 251 252 245 238 234 230 228 229 227 231 235 239 232
348 329 318 324 325 329 322 319 316 317 319 318 319 321 323 323 322 321 316 312 310 314 314 315 318 319 319 322 324 322 314 313 312 308 307 289 260 253 254 255 255 257 259 260 260 260 250 249 246 245 247 246 243 239 238 237 235 233 228 232 235 231
329 317 316 320 322 319 315 316 318 321 321 320 322 324 325 323 323 320 317 315 315 316 318 319 320 322 324 326 327 326 319 320 319 317 310 306 275 265 260 254 249 251 250 253 267 259 258 258 255 257 251 246 244 243 242 241 237 234 229 229 236 233
337 329 314 317 315 309 313 321 323 323 325 326 330 329 329 327 325 324 321 321 319 320 321 322 322 327 330 332 332 327 327 325 324 321 321 322 319 285 266 259 249 253 254 258 251 256 258 253 256 252 252 246 245 246 244 242 238 235 232 230 234 230
356 338 315 314 314 312 323 327 331 329 326 327 330 329 329 326 326 325 325 323 322 322 326 326 327 331 334 335 334 328 328 326 325 324 322 330 335 336 329 319 296 252 244 248 250 257 260 256 246 249 246 240 239 240 242 240 236 233 229 226 226 225
360 336 321 309 315 323 329 329 329 324 323 329 330 331 329 327 326 324 324 325 324 326 331 333 333 333 335 342 339 332 334 330 328 327 329 334 337 335 331 329 328 315 272 237 252 254 260 257 249 248 244 241 238 235 235 235 235 229 225 221 223 221
358 324 316 312 318 330 329 328 330 330 330 331 335 331 329 327 329 327 325 326 327 329 333 334 336 337 336 341 343 339 336 335 333 332 334 337 337 335 333 334 331 334 334 326 304 279 261 256 252 243 246 251 242 239 228 222 220 214 207 210 207 200
342 314 308 310 320 326 328 329 329 334 339 339 337 335 332 330 327 326 325 328 331 334 336 338 340 339 339 339 343 340 337 334 334 332 328 331 332 336 334 328 330 336 334 325 332 334 316 296 276 254 248 264 262 250 231 215 216 208 205 203 192 181
312 304 307 312 324 325 327 329 332 340 342 341 338 337 336 332 330 330 333 334 335 337 339 343 342 343 340 342 345 336 333 339 343 337 336 335 340 345 349 349 342 343 344 340 336 326 319 314 299 288 284 280 278 272 245 228 213 206 201 191 181 169
313 299 312 318 325 326 328 329 336 342 345 344 339 338 335 332 332 331 333 337 339 339 340 342 341 337 330 342 344 339 337 339 331 340 346 346 346 351 355 356 354 357 1 359 346 334 333 337 343 334 287 278 281 273 253 232 220 205 193 176 167 168
320 317 313 319 323 327 327 329 338 345 343 342 338 338 334 334 334 334 334 335 335 340 344 343 342 333 335 342 344 340 345 336 335 336 341 348 351 352 356 360 1 1 4 1 358 356 345 351 353 359 356 333 294 277 255 233 220 201 180 171 163 167
291 295 298 312 324 328 330 331 339 343 344 341 339 338 335 333 335 332 332 335 339 342 344 345 344 339 342 346 342 339 341 337 347 345 340 336 342 350 0 2 1 2 4 2 360 0 1 3 5 9 9 7 2 321 259 233 210 189 173 162 166 171
271 287 297 323 333 329 331 337 339 344 341 339 337 338 332 330 332 332 329 338 344 346 348 349 348 345 344 343 337 339 334 343 346 349 338 341 338 348 353 357 357 357 3 3 1 0 3 9 12 14 19 17 9 1 324 218 193 177 165 166 175 174
275 292 324 343 335 335 337 336 337 339 339 337 337 336 333 332 334 334 331 338 347 353 351 346 346 346 345 346 341 341 337 338 342 342 345 347 342 343 349 334 348 349 3 7 360 2 4 9 13 18 26 24 22 15 8 150 146 157 164 172 169 177
238 335 343 339 335 334 337 336 340 340 336 336 339 337 337 336 336 337 336 337 343 354 350 350 349 347 351 350 343 340 331 341 344 348 345 342 341 348 342 339 335 323 343 4 7 6 3 6 9 18 31 31 29 29 35 31 14 24 34 30 22 189